Theta_e
310 312 315 315 315 316 315 314 313 313 314 314 315 315 316 318 318 317 317 317 316 318 317 315 309 307 309 313 308 310 315 319 319 319 319 319 320 320 322 323 322 323 325 324 321 327 325 325 326 326 327 328 327 329 332 333 333 333 332 331 331 329 331 333 334 329 325 322 323 323 321 322 322 322 321 322 324 325 325 325 326 325 324 324 325
310 310 314 315 315 316 314 314 314 312 313 314 314 314 317 318 317 318 317 317 317 317 314 312 312 310 310 309 309 310 313 315 316 316 319 322 320 320 321 318 318 318 322 324 324 321 321 323 325 324 325 325 325 329 329 330 330 329 330 329 332 330 329 332 334 328 323 320 319 319 319 320 322 322 321 322 322 322 324 325 326 325 324 324 324
309 309 313 314 315 315 315 314 313 313 313 314 314 314 317 317 317 319 317 316 317 316 311 310 313 315 311 312 311 312 316 316 314 318 322 318 320 320 318 317 317 317 318 320 322 323 321 321 321 325 323 325 324 322 323 326 327 327 329 328 327 329 331 333 331 327 322 324 322 319 314 315 315 319 322 322 322 322 322 323 325 324 325 323 324
307 308 311 313 314 315 315 314 314 314 313 313 315 316 319 318 318 318 317 316 316 317 315 313 316 315 316 315 315 315 315 320 318 318 317 316 317 318 317 316 317 317 317 317 318 319 319 319 320 321 321 325 324 323 322 322 324 326 327 328 328 325 327 329 332 330 327 324 317 318 316 315 310 314 316 320 322 322 322 322 324 325 324 324 324
306 307 309 311 313 313 315 315 316 315 314 314 317 319 320 319 320 318 317 316 315 320 315 316 318 316 315 316 317 315 317 314 310 310 314 317 317 315 315 316 317 317 317 317 319 317 319 319 320 319 319 321 322 322 322 325 325 325 326 326 326 324 324 328 330 332 330 329 323 320 316 313 313 315 316 316 321 320 321 322 322 323 324 324 321
304 307 309 311 313 313 314 316 316 316 316 317 318 319 319 319 321 319 317 315 315 314 316 316 317 314 313 312 312 311 309 308 307 308 311 311 312 316 316 316 317 316 317 317 317 320 316 318 318 318 318 319 321 322 323 323 325 325 326 326 326 326 324 322 325 329 331 331 329 326 324 318 319 322 317 311 320 322 322 323 323 323 323 322 322
306 306 308 310 311 313 314 315 316 316 317 319 319 318 319 319 321 319 318 315 316 315 316 318 316 316 315 315 314 312 309 310 310 312 312 312 314 313 315 315 316 316 316 316 316 317 317 317 317 318 319 318 320 319 318 320 323 325 326 326 327 326 325 323 323 324 328 330 330 329 328 326 325 321 317 318 315 318 321 321 322 323 323 323 322
304 305 309 310 311 313 314 316 317 317 318 319 319 319 318 318 320 319 318 316 315 316 315 317 317 317 316 315 316 313 310 311 312 313 315 316 313 313 315 316 317 316 316 315 316 317 318 316 316 316 316 317 320 318 316 317 319 321 322 326 326 327 326 325 324 325 325 326 328 326 325 327 327 326 325 321 318 315 316 321 322 322 322 323 323
306 305 309 310 310 312 314 315 317 318 319 319 318 319 319 319 320 319 318 315 313 316 315 316 318 315 312 311 311 313 312 313 315 314 312 314 313 313 314 314 313 314 315 315 315 315 319 316 314 314 315 316 319 318 316 317 317 316 317 318 321 325 326 326 324 324 325 325 326 324 325 324 326 327 327 325 320 317 315 317 318 321 322 321 322
306 305 310 310 311 312 314 315 315 318 319 320 319 319 319 318 320 318 317 314 314 315 315 315 316 315 311 310 311 311 314 313 312 311 312 311 312 312 312 312 313 312 313 314 314 315 315 315 315 314 314 315 319 316 316 316 316 316 317 317 318 319 323 325 325 326 326 326 326 326 324 324 323 323 323 323 322 321 317 315 318 318 317 319 322
305 305 309 311 312 312 313 313 314 316 318 319 318 318 318 319 319 318 317 315 315 314 314 313 315 313 312 311 312 310 312 311 310 310 311 309 311 310 312 312 314 313 314 312 311 314 313 316 314 314 315 316 317 315 315 315 316 316 317 317 316 316 317 321 324 325 326 326 327 326 325 324 323 321 320 322 321 319 318 318 318 319 319 319 321
305 306 306 311 310 312 312 312 312 314 316 318 318 318 318 318 319 318 317 316 315 314 313 313 315 313 313 312 312 310 312 311 310 308 311 309 311 311 310 312 309 314 313 312 312 313 314 313 315 314 314 313 313 314 315 316 315 315 315 315 316 316 317 319 320 322 324 324 324 325 325 325 325 324 324 324 322 320 318 317 317 318 320 321 322
304 306 306 310 310 311 311 311 312 313 315 317 318 318 318 318 318 318 316 315 315 313 313 312 313 312 313 313 312 312 312 311 311 308 312 310 310 310 310 308 310 312 310 310 313 312 313 311 312 312 312 313 314 313 313 314 314 313 313 313 314 314 315 315 315 317 321 323 324 325 326 326 325 326 326 324 323 322 321 318 319 324 318 319 322
304 306 307 310 310 311 312 312 313 314 315 317 318 318 318 319 318 318 317 315 315 313 313 312 312 311 313 312 312 314 312 312 311 312 311 311 310 309 310 308 309 309 311 309 311 312 312 313 312 311 311 311 312 311 311 311 312 313 313 312 312 313 314 314 315 315 316 319 323 324 325 327 326 326 326 325 323 320 320 320 319 319 322 319 322
304 307 307 309 310 310 311 312 313 314 314 316 318 319 319 318 318 318 317 315 315 314 314 312 312 311 313 313 313 314 312 312 311 313 312 311 311 311 310 309 308 308 308 309 312 309 310 310 311 311 310 310 310 309 311 309 310 311 312 312 313 313 314 314 314 315 316 316 317 321 323 324 325 327 327 326 326 323 322 321 319 316 315 316 316
303 305 306 309 310 310 311 311 313 314 314 316 318 319 319 319 319 319 318 316 315 314 315 313 313 312 313 313 313 314 314 313 312 312 312 311 310 310 309 309 309 309 309 309 311 310 309 309 311 310 310 309 309 309 309 309 309 309 309 310 309 313 312 312 313 313 314 314 315 317 320 323 325 326 326 327 327 326 324 322 321 319 315 312 314
304 304 306 307 310 310 311 310 312 313 314 316 318 320 320 320 320 319 319 317 315 314 315 314 314 312 312 312 312 312 312 311 310 309 311 311 310 309 309 309 309 308 310 310 309 309 309 309 308 308 308 308 307 308 308 307 307 307 307 307 307 309 310 310 311 311 312 313 314 315 317 320 323 324 325 325 326 325 325 324 323 320 318 314 312
301 304 305 308 310 309 310 311 313 314 314 316 319 320 321 321 321 320 319 317 316 315 314 314 314 312 312 312 312 311 311 311 310 309 310 310 309 309 308 308 307 308 309 311 309 309 308 313 308 307 307 307 307 306 306 306 306 306 305 306 307 307 307 308 309 310 310 311 312 313 315 316 321 323 323 324 324 325 325 325 324 323 321 317 316
301 301 305 308 309 309 309 311 314 314 315 318 320 322 322 321 322 321 319 318 317 316 315 315 314 314 313 312 311 311 310 310 310 310 310 309 309 308 307 308 307 308 308 307 307 307 306 307 306 305 305 305 305 305 305 305 305 304 304 306 305 305 305 306 307 309 310 311 311 312 313 314 317 321 323 323 323 324 324 324 324 323 321 321 318
300 303 303 308 309 310 310 312 313 315 317 318 320 322 322 322 321 321 320 319 317 316 315 314 314 314 313 312 311 311 310 310 309 310 309 309 309 309 308 307 307 308 306 307 306 306 306 304 305 304 304 304 304 304 304 303 303 303 303 305 304 304 304 304 305 306 307 308 309 310 312 313 315 317 321 323 324 324 323 323 323 323 323 323 321
304 304 302 307 310 310 311 312 315 316 318 318 319 320 322 322 321 321 319 318 316 316 315 314 314 313 312 311 310 310 309 309 309 309 309 308 308 309 308 307 307 306 305 305 305 305 305 304 303 304 303 302 302 302 302 302 302 302 302 302 302 303 303 304 305 305 306 306 307 308 310 312 314 314 316 320 322 323 323 323 323 323 322 323 322
303 303 305 305 308 311 311 312 313 313 314 316 317 319 321 321 321 321 319 319 317 316 315 314 314 313 312 311 310 309 309 309 308 308 308 308 307 307 306 306 305 305 305 305 305 304 304 304 302 302 301 301 302 301 301 301 301 301 300 303 303 302 302 303 303 303 304 306 306 306 307 309 311 312 313 315 318 322 322 321 322 323 323 323 324
302 305 304 305 304 310 312 311 310 311 312 315 316 319 320 320 320 320 319 318 318 317 315 314 314 313 312 311 310 309 309 308 308 307 307 308 307 306 307 305 304 304 305 305 304 304 304 303 302 302 301 300 301 300 300 301 301 300 300 300 302 301 302 302 302 303 304 305 304 304 305 306 309 309 310 312 314 315 320 321 321 322 322 323 323
303 302 303 304 305 308 311 311 310 310 310 312 315 319 320 320 320 320 318 318 318 316 315 314 313 312 311 310 309 309 308 308 307 307 307 307 307 306 307 306 306 305 305 305 304 303 303 302 302 301 300 300 300 300 300 300 301 300 300 301 301 302 302 302 302 302 303 304 304 304 304 305 306 307 308 310 312 313 315 319 320 321 321 322 322
302 302 304 303 304 304 305 308 306 309 310 310 314 317 319 319 319 318 317 317 317 316 314 313 312 311 310 310 309 309 308 307 307 307 307 307 306 306 306 305 305 304 304 303 303 304 302 302 301 301 300 299 300 300 300 300 300 301 302 302 303 303 303 303 303 303 304 304 304 304 304 304 305 305 306 308 309 310 312 313 316 320 319 320 322
297 299 302 302 303 303 304 304 304 309 313 313 313 314 316 317 317 317 316 315 316 315 314 313 311 310 310 309 308 308 307 307 307 306 306 306 306 306 305 305 305 303 302 302 302 301 302 301 300 300 300 300 300 300 300 300 301 302 303 304 304 303 304 303 303 303 303 304 304 304 305 305 305 304 305 307 308 309 311 312 313 315 319 319 318
296 297 298 301 301 302 303 303 304 311 314 314 314 315 315 316 315 314 315 315 315 314 313 311 310 310 309 308 308 308 307 307 307 306 307 306 306 305 304 303 303 302 301 301 300 300 300 300 300 300 300 300 300 301 301 301 302 302 302 302 302 303 303 303 303 303 303 303 303 304 304 305 305 305 305 305 306 307 308 310 311 313 315 318 318
295 295 296 296 298 301 303 303 304 307 313 314 315 315 316 315 315 314 314 315 315 313 311 310 310 309 308 308 308 308 307 307 307 306 306 306 305 304 303 302 303 300 300 300 299 299 298 300 299 300 300 300 300 299 299 300 301 301 301 301 301 301 301 302 303 303 303 303 303 303 303 303 303 304 304 305 305 305 306 306 307 310 312 313 315
294 295 295 296 296 298 302 303 305 307 310 311 312 311 312 313 313 313 313 314 313 312 310 309 309 309 308 308 308 307 307 307 307 306 305 304 303 302 302 301 300 300 301 300 299 299 298 298 298 299 298 299 300 301 302 302 302 302 303 302 302 302 302 302 302 302 303 303 303 303 304 304 305 305 303 302 302 302 303 302 303 304 305 306 308
296 296 296 297 298 299 300 302 303 304 307 309 310 308 309 309 310 312 313 313 313 311 309 309 308 308 308 308 308 307 307 306 305 304 303 302 302 301 300 299 299 299 298 299 298 298 298 298 297 297 297 298 299 299 301 299 298 300 300 300 301 301 301 301 301 301 301 301 302 302 303 304 302 302 301 299 298 298 300 302 302 302 302 302 304
297 297 298 298 298 300 300 300 302 302 303 305 306 306 308 309 311 312 313 313 313 311 309 308 308 308 308 308 307 306 305 305 303 302 301 301 301 301 299 299 299 298 298 297 298 297 296 296 296 296 295 297 298 299 297 294 294 295 297 298 298 298 298 298 299 299 299 300 300 301 301 302 302 301 301 299 297 297 297 297 298 299 301 302 301
297 297 298 298 299 298 298 299 302 304 304 303 304 307 308 309 310 312 313 313 312 310 308 307 308 307 307 306 305 304 303 303 302 301 301 301 300 299 298 297 297 297 297 297 297 296 295 295 296 295 294 295 296 298 295 295 294 294 295 297 296 296 296 296 296 297 297 298 298 299 300 301 301 301 301 301 300 298 297 296 296 296 296 296 297
296 297 297 297 298 299 299 301 304 304 304 305 306 306 307 309 309 311 313 312 311 310 308 307 307 306 305 304 304 303 302 302 301 301 301 300 299 297 296 296 296 296 296 296 295 295 295 294 295 294 293 295 295 296 294 294 294 294 294 295 295 295 295 295 295 295 296 296 297 297 298 299 301 301 303 301 300 300 298 297 298 298 298 297 296
297 298 298 299 299 301 302 302 302 303 305 306 308 307 309 310 310 310 310 311 310 311 306 305 305 305 304 304 303 302 301 300 300 300 299 298 296 295 294 295 296 296 295 294 294 294 293 293 293 293 294 294 295 296 294 294 294 293 293 293 296 296 296 296 295 295 295 295 295 296 296 297 298 300 300 300 300 300 299 299 300 301 304 304 299
297 298 298 299 299 299 300 301 302 303 303 304 306 307 309 310 309 309 310 309 309 308 307 305 304 304 304 303 302 301 299 299 299 298 297 295 295 293 294 294 295 293 292 293 293 292 292 294 292 292 292 294 296 295 293 293 293 292 292 292 294 295 295 295 295 295 295 295 295 296 296 296 297 298 299 299 299 299 299 298 298 298 299 300 302
298 298 300 301 302 302 301 301 303 305 306 306 307 307 308 308 309 309 309 308 308 307 306 305 303 303 303 302 301 299 299 298 297 296 295 294 294 294 294 294 293 291 292 291 291 292 292 291 292 291 292 292 293 293 292 292 292 291 292 293 294 293 293 293 293 293 294 295 295 296 295 295 296 296 296 295 296 298 298 297 297 297 297 298 300
299 301 302 303 304 305 305 304 305 306 307 307 307 307 307 307 307 308 307 306 306 305 305 304 303 302 302 301 300 299 298 297 296 295 294 294 293 294 293 292 290 290 290 290 290 291 291 290 290 291 291 292 292 293 292 292 292 292 292 293 292 292 291 291 291 292 293 293 294 294 294 294 295 295 295 293 293 294 296 296 296 296 296 297 297
301 302 303 303 304 305 306 306 306 306 306 306 306 305 305 306 306 306 305 304 305 304 305 304 302 301 301 300 300 299 297 297 295 295 294 293 293 292 292 292 291 289 289 290 291 290 290 290 290 291 292 292 292 293 293 292 292 291 292 291 291 290 290 290 291 292 292 292 293 296 297 295 294 295 294 293 292 294 295 296 296 295 295 295 296
301 301 301 302 303 304 305 306 305 305 306 306 306 305 304 304 305 304 304 303 303 303 304 303 302 301 301 300 299 298 296 295 294 293 293 292 292 292 291 291 290 289 289 289 291 289 289 289 290 291 296 294 292 293 293 291 291 291 292 291 291 290 289 289 290 290 291 291 292 294 295 295 295 295 293 292 292 294 295 296 296 295 295 294 295
301 302 302 302 303 304 305 304 303 304 306 307 305 304 303 304 303 303 303 302 302 302 302 301 301 300 299 299 298 297 295 295 294 293 292 293 292 291 290 290 289 289 288 288 289 288 288 289 290 291 292 292 292 292 293 292 292 291 292 292 291 289 289 289 290 290 290 291 292 292 294 292 291 291 291 291 292 292 294 296 296 295 295 294 297
300 301 301 302 302 303 304 305 306 306 306 304 306 304 304 303 303 303 301 301 299 298 299 299 299 298 298 298 297 297 296 295 294 293 293 293 292 291 290 289 289 288 288 288 287 288 288 289 290 290 290 291 292 291 292 292 291 291 291 291 290 290 290 290 289 289 289 290 290 291 293 293 292 291 291 291 291 291 292 295 295 295 296 296 296
300 301 301 299 300 302 304 306 308 307 307 306 306 305 303 303 303 301 299 299 299 298 298 298 298 297 297 297 296 296 297 297 294 294 293 291 291 291 291 289 289 288 287 287 286 287 287 288 288 289 289 290 292 293 291 292 291 291 291 291 290 290 290 290 289 288 289 289 290 291 291 292 291 291 291 291 291 291 291 294 295 293 293 292 295
299 300 300 298 298 299 301 305 306 307 307 307 305 303 302 302 300 299 299 299 298 298 298 298 297 297 297 296 296 296 296 298 295 294 292 290 291 290 290 289 288 287 287 286 285 286 286 287 287 288 288 289 289 290 292 291 291 290 290 290 290 289 289 289 288 287 288 289 290 290 292 292 290 291 291 291 291 291 291 293 292 292 292 291 292
300 302 303 302 302 303 303 303 305 305 306 306 306 303 302 300 299 298 299 298 298 298 298 297 296 296 296 296 296 295 296 295 293 292 292 289 289 289 290 290 287 286 285 285 285 287 285 285 287 287 288 288 288 289 290 290 290 289 289 289 289 288 288 289 289 288 289 289 289 290 290 290 290 290 290 290 291 291 292 291 291 291 291 291 294
298 300 303 303 302 302 303 304 305 305 305 306 305 302 298 298 298 299 297 297 297 297 297 296 295 295 295 295 293 293 292 291 291 291 290 289 288 288 287 287 286 285 285 284 284 284 286 286 286 286 286 287 288 288 289 289 289 289 289 289 288 288 288 288 288 289 289 289 289 289 289 289 289 289 289 290 290 290 290 290 290 290 292 293 293
298 300 301 301 302 302 303 303 304 306 305 304 304 301 297 297 298 298 298 298 297 297 296 296 295 293 293 294 292 291 291 291 292 291 289 289 288 287 286 286 286 285 285 285 284 284 285 285 285 285 286 286 288 288 288 288 289 289 289 288 288 288 288 289 289 288 288 288 288 288 288 288 288 288 289 290 290 291 291 290 290 291 293 293 294
298 300 300 301 302 301 302 302 301 303 302 303 302 300 298 298 298 298 298 298 297 296 294 294 293 292 292 291 290 289 290 290 291 290 290 289 288 286 286 286 284 283 283 284 283 284 284 283 284 285 286 286 287 287 287 287 288 288 288 288 288 288 288 288 288 288 288 288 288 289 289 288 288 288 288 289 290 291 291 292 292 293 293 294 294
300 300 300 301 302 302 301 302 301 300 302 301 300 299 298 298 299 299 298 297 296 295 294 293 292 292 291 290 290 290 289 289 289 289 287 287 288 287 284 285 283 282 282 282 281 282 282 283 284 285 285 286 286 287 287 287 287 287 287 287 287 287 287 287 287 287 288 288 289 289 289 289 289 289 289 289 289 290 291 291 293 294 294 294 294
299 300 300 300 300 301 302 301 301 301 300 299 298 298 299 298 298 298 297 295 294 293 294 293 292 292 291 291 291 290 290 289 290 289 288 288 289 286 286 283 282 283 282 282 280 282 284 283 284 284 285 285 286 286 287 288 287 287 286 286 286 286 287 287 287 287 287 287 287 287 287 288 289 288 288 288 288 289 289 291 293 295 296 296 295
301 301 302 302 302 301 302 302 301 300 300 299 298 298 298 299 299 297 296 294 293 293 292 292 292 292 292 291 292 290 291 290 289 288 288 288 288 289 287 286 284 289 289 289 288 283 284 284 285 285 286 286 285 287 288 287 287 287 287 287 287 287 287 287 287 286 287 285 286 286 287 287 288 288 288 288 288 289 289 290 291 291 293 295 295
301 300 300 300 301 300 300 300 301 299 298 298 297 298 298 299 299 297 296 295 294 292 292 292 292 292 291 292 291 291 291 291 289 288 287 286 286 287 288 288 288 289 288 289 288 288 288 288 287 286 287 288 288 287 287 287 287 287 287 287 287 287 286 286 286 286 285 285 286 287 287 287 288 288 288 288 288 289 289 290 290 291 292 292 292
Wind_Speed
12 16 17 16 14 15 14 13 12 11 11 11 9 8 6 7 6 5 5 4 4 2 1 2 1 4 3 4 5 3 4 4 5 4 5 3 4 4 4 3 3 1 0 1 1 0 1 2 2 3 3 3 2 1 2 2 2 3 1 2 6 5 5 1 2 3 3 4 2 2 2 3 5 5 5 5 6 7 6 6 6 6 6 7 8
9 10 12 13 13 14 14 12 13 14 11 12 12 11 7 7 7 6 4 4 4 4 3 3 2 5 4 3 4 5 6 5 3 4 3 3 3 3 4 4 4 3 3 1 2 2 2 2 3 3 3 3 3 4 3 2 2 1 2 3 3 4 3 1 1 1 1 1 1 4 5 5 3 5 6 6 6 6 6 5 6 7 6 6 6
13 12 12 14 15 15 13 13 13 15 13 13 12 12 9 8 8 5 6 4 3 4 4 5 3 3 3 3 4 3 2 3 3 3 4 3 3 3 4 4 4 4 5 4 3 2 1 1 1 3 2 1 1 2 2 3 3 5 5 4 2 3 4 2 2 4 3 2 3 2 3 1 3 2 4 6 7 7 6 6 6 7 8 6 7
15 16 15 16 16 15 13 13 13 12 12 10 11 12 9 9 8 7 7 4 4 4 4 4 5 5 5 5 3 4 3 3 2 2 4 3 4 4 4 4 3 2 3 4 4 4 3 3 3 3 1 3 3 1 1 3 3 4 4 4 3 5 4 2 3 4 4 4 1 4 3 2 3 5 6 6 7 7 8 8 6 8 7 6 6
13 14 14 13 14 15 16 15 12 12 12 12 11 11 9 11 10 9 7 5 5 4 6 5 5 4 3 3 3 3 3 3 3 3 2 3 4 3 2 2 1 3 2 4 3 4 4 3 4 3 4 4 2 0 1 4 4 3 4 4 5 5 5 4 3 4 6 6 4 2 1 2 4 2 2 6 2 4 7 9 8 8 8 8 7
13 17 17 17 16 13 10 12 13 12 13 12 11 10 10 9 10 9 7 6 5 5 7 7 6 6 4 3 3 2 3 4 5 4 2 4 3 1 3 3 3 1 0 1 3 3 4 4 3 3 3 4 3 3 3 3 2 3 4 4 4 4 5 3 5 3 6 6 6 5 3 2 3 2 2 3 2 6 6 8 9 8 7 7 8
4 5 11 12 13 14 13 13 13 13 13 11 10 9 10 9 10 9 8 7 6 6 6 7 5 5 6 6 5 5 5 2 2 3 5 3 3 3 3 3 4 3 1 1 1 3 3 4 4 4 3 3 3 2 3 3 4 3 3 3 5 5 3 5 6 5 3 4 7 8 7 4 1 1 3 1 4 3 3 6 7 9 9 9 9
8 9 15 16 15 16 17 16 14 15 13 11 10 9 10 9 10 9 8 8 7 7 7 7 7 6 5 5 5 5 6 5 4 3 4 4 4 3 2 2 1 3 3 2 1 0 1 3 3 3 3 4 4 4 3 3 4 3 3 3 4 4 5 6 6 5 5 5 5 5 5 6 7 6 5 4 3 5 7 3 5 6 7 9 10
9 9 14 18 18 16 16 15 14 13 12 13 12 10 10 9 10 9 9 9 8 8 8 6 6 7 7 6 4 4 6 6 4 4 4 4 4 3 2 1 2 1 3 3 2 1 0 1 2 3 3 4 3 5 4 4 4 5 6 6 4 2 3 5 4 5 4 7 5 4 8 8 6 6 6 5 6 5 6 7 7 5 4 6 8
10 11 16 16 18 18 17 16 14 13 13 12 11 9 9 9 10 11 9 9 9 8 8 6 6 6 6 5 5 5 5 4 5 4 4 4 4 4 2 2 2 2 1 3 2 2 1 0 0 1 2 3 3 4 4 5 4 4 3 4 5 5 4 4 6 6 6 6 6 6 6 6 7 7 6 7 8 8 8 6 4 4 7 6 6
9 8 11 16 15 16 13 13 13 10 10 12 11 11 9 10 11 12 10 9 9 10 8 8 5 6 6 6 6 7 6 6 5 4 4 4 4 4 4 4 3 5 3 3 2 1 2 1 0 0 1 2 3 5 4 4 4 4 4 4 4 5 6 5 5 5 6 6 6 7 8 8 8 8 7 6 7 6 6 9 10 8 5 5 5
9 9 9 13 12 11 11 12 11 11 9 12 11 11 10 10 11 11 8 9 9 9 8 7 6 7 6 7 6 7 7 6 7 7 6 5 4 5 4 3 3 3 4 3 3 4 3 3 2 2 1 2 3 4 5 5 4 3 5 6 6 5 5 6 5 5 5 5 5 5 7 7 8 8 8 8 7 7 6 8 7 5 7 4 2
10 10 10 10 13 14 14 13 12 11 12 13 14 12 11 10 12 12 10 9 10 9 9 8 6 7 7 7 6 6 6 7 7 7 6 6 5 5 4 4 3 3 4 3 3 3 3 2 1 1 1 1 2 2 3 4 6 7 6 5 5 5 5 5 6 6 5 5 6 5 6 7 8 7 7 6 5 4 6 8 8 4 6 3 2
10 11 11 11 13 14 17 16 15 14 14 15 14 13 12 10 12 13 11 10 9 9 10 8 7 7 6 6 6 6 6 6 6 7 6 6 6 5 5 5 5 4 3 4 3 3 2 2 2 1 0 1 2 3 3 3 4 4 5 7 6 5 5 5 6 6 5 5 5 6 5 7 8 8 8 7 7 7 8 9 7 3 3 6 2
10 11 12 12 15 16 15 17 16 16 16 15 14 14 13 11 13 13 11 9 10 11 8 10 8 7 5 6 6 5 7 6 5 6 6 6 5 6 5 4 4 3 3 2 2 2 2 1 0 0 1 2 2 3 3 3 3 3 3 5 6 6 6 6 6 7 7 6 6 5 6 6 7 7 7 9 7 8 9 7 5 7 6 5 5
10 12 11 13 16 16 15 15 15 14 16 14 15 14 14 14 14 15 13 12 12 10 10 10 8 7 6 7 7 6 5 5 5 4 5 6 5 6 5 4 4 3 2 2 2 3 3 2 1 1 2 2 3 2 2 2 3 4 5 5 6 5 7 7 7 7 7 7 7 7 6 7 7 7 7 7 8 8 7 7 8 8 8 9 6
1 3 11 12 11 14 15 13 11 12 13 14 15 14 15 14 13 14 12 12 12 12 11 10 9 8 7 7 6 6 6 6 6 5 6 5 5 4 4 4 3 3 2 2 1 1 2 2 1 2 2 3 3 3 3 3 3 3 4 4 4 4 5 6 6 7 7 7 7 8 8 7 7 7 7 7 7 7 7 8 8 10 10 10 9
6 3 7 11 12 12 11 12 14 15 15 13 14 13 12 13 14 14 13 13 12 11 11 10 10 9 8 8 7 8 7 6 6 6 5 6 4 4 3 3 3 3 2 2 1 1 1 1 2 3 4 4 4 4 4 4 3 3 3 3 3 3 4 5 6 7 8 8 8 8 8 9 7 7 7 7 7 7 9 8 6 7 8 10 10
3 1 8 10 9 9 11 11 12 13 13 13 13 11 11 9 11 13 13 14 14 11 10 9 10 8 8 9 9 7 6 6 5 5 5 6 5 4 4 4 3 3 3 2 1 1 2 3 3 3 2 2 2 3 3 3 3 3 3 4 3 3 4 5 5 6 7 7 8 10 9 9 9 8 8 7 7 7 7 6 8 8 8 9 10
4 1 5 13 12 12 12 11 12 12 12 12 13 11 12 11 11 10 9 10 11 11 10 11 10 8 8 7 7 7 6 6 5 6 6 6 5 5 4 4 4 3 3 2 2 3 3 4 3 3 2 2 2 2 2 3 3 3 3 3 3 3 4 5 6 5 7 8 9 10 9 8 8 8 8 7 8 7 7 8 8 8 8 8 8
11 12 2 10 10 12 10 11 13 14 12 12 13 13 13 11 11 12 12 12 12 12 11 11 9 9 9 10 8 7 7 6 5 5 6 5 4 4 5 4 3 4 3 3 3 4 4 4 4 4 4 4 4 4 3 3 2 3 3 3 3 3 4 5 4 6 5 7 9 10 10 9 8 9 7 7 7 7 7 8 8 8 8 7 8
7 7 10 3 7 7 9 9 9 10 10 11 11 11 12 12 13 13 12 13 14 13 13 11 10 9 11 9 8 7 7 6 6 5 6 5 4 4 4 4 4 4 3 4 4 4 4 4 4 4 4 4 4 4 4 3 3 3 3 3 4 4 5 5 5 7 8 7 7 9 10 10 10 10 9 9 8 7 8 8 8 8 9 9 8
5 6 8 11 4 9 8 7 8 10 12 13 12 13 14 14 14 13 14 14 14 14 12 11 10 10 10 9 8 7 7 7 7 6 5 5 4 4 4 4 4 4 3 4 4 4 4 4 4 4 3 3 3 3 2 2 3 3 4 4 4 4 5 6 6 8 9 9 9 9 10 10 9 10 10 10 9 9 8 9 10 8 9 10 9
8 5 4 5 5 1 8 11 11 9 9 13 13 13 14 14 14 13 14 14 13 11 11 11 10 10 9 9 9 7 8 7 7 6 6 5 4 4 4 4 4 4 4 4 4 4 3 4 4 3 3 3 3 3 3 3 4 4 4 5 4 5 6 7 8 9 9 9 9 9 9 9 9 10 10 10 10 9 9 8 8 10 9 11 10
8 10 9 5 5 4 4 5 4 7 11 11 13 14 14 14 12 12 12 12 12 12 12 11 11 11 10 10 8 8 8 7 7 6 6 5 5 5 4 4 4 4 4 3 2 1 1 1 3 3 4 3 3 3 3 4 4 4 4 5 5 6 6 7 8 9 9 10 10 11 11 10 10 11 11 10 10 11 10 10 10 8 8 10 9
6 7 9 11 8 5 5 1 4 7 3 3 5 6 8 10 11 11 11 10 12 12 12 12 11 11 10 10 9 8 8 8 7 6 6 6 5 5 4 4 4 4 3 2 1 1 1 3 2 2 2 3 3 3 4 4 4 3 4 6 7 8 8 8 8 9 9 8 8 9 9 9 10 10 10 11 10 11 10 11 11 10 8 8 10
9 7 6 8 8 12 11 6 1 7 8 9 11 11 11 11 11 10 11 12 13 13 12 12 11 11 10 10 9 9 8 7 7 6 6 5 5 4 4 4 3 3 2 1 1 1 2 1 2 2 3 4 4 4 4 4 4 4 5 6 6 7 7 7 8 9 10 10 9 9 9 9 10 10 11 12 12 12 10 11 11 11 10 8 7
9 6 7 7 9 9 10 10 5 7 10 9 10 11 14 14 15 13 12 11 10 12 12 12 11 10 10 9 9 8 8 7 7 6 5 5 5 4 4 4 3 3 1 1 1 2 3 2 2 2 2 2 3 4 4 5 5 6 6 7 8 8 9 9 9 9 9 10 10 11 11 11 12 11 11 11 11 12 10 11 11 11 11 10 9
8 8 6 5 6 7 11 10 2 6 8 2 3 3 2 3 5 6 10 11 11 12 12 12 11 11 10 9 7 7 6 7 7 6 5 5 5 5 4 4 3 2 2 2 2 2 2 2 1 1 2 2 3 4 3 4 6 7 7 8 8 8 9 10 10 9 8 8 8 8 9 9 11 14 15 14 15 14 12 13 13 11 12 12 13
7 7 7 8 7 5 5 7 7 2 8 11 7 4 4 1 3 6 11 11 13 13 13 12 12 10 9 8 8 7 7 6 6 6 6 5 5 4 4 4 4 3 3 4 4 4 2 1 0 1 1 2 2 3 5 10 9 6 7 7 8 8 9 9 10 11 11 11 12 11 11 15 14 14 14 15 16 16 17 14 14 13 13 12 12
9 8 9 10 9 7 6 5 4 2 4 3 4 3 1 3 5 3 5 5 13 13 12 12 11 10 10 9 8 7 7 7 6 6 5 5 5 5 4 4 4 4 4 4 4 3 1 1 1 2 2 2 3 3 8 8 9 10 7 6 7 8 8 9 10 10 11 11 11 11 11 14 17 17 16 15 14 17 18 19 21 22 19 14 13
11 12 11 12 13 12 6 5 3 1 5 4 4 4 4 3 4 6 4 7 2 7 9 10 10 10 10 10 8 8 7 7 6 6 5 6 5 5 4 4 3 2 2 2 2 2 1 1 1 1 2 3 3 6 9 10 11 10 8 8 8 8 8 9 9 11 11 11 12 11 11 9 11 12 12 13 15 17 16 17 18 19 19 21 18
9 9 9 9 10 13 12 3 4 4 3 8 8 7 6 5 7 8 8 5 1 3 5 8 9 10 10 9 8 8 7 7 6 6 6 6 5 4 4 3 2 3 2 2 1 1 1 1 1 3 4 4 4 7 10 12 11 12 13 12 9 9 9 9 9 10 11 11 11 12 12 10 10 14 13 12 11 12 15 19 20 20 21 21 21
5 6 8 9 9 9 11 9 6 6 7 6 10 11 10 8 9 8 9 10 8 3 4 6 8 9 8 8 8 8 7 6 6 6 6 5 5 5 4 3 2 1 1 2 0 0 1 1 2 4 4 4 5 7 12 12 13 14 15 13 9 10 10 10 11 11 10 11 11 12 12 12 11 11 11 11 10 11 12 13 15 15 13 14 17
6 8 9 10 12 12 12 12 9 7 6 5 7 8 10 12 12 11 11 11 12 12 8 5 6 7 8 8 7 7 6 5 5 5 5 4 4 3 3 3 3 2 2 0 0 1 2 2 3 4 4 5 4 9 11 11 11 12 12 10 7 7 8 10 10 10 11 12 12 12 13 14 13 13 12 13 13 13 13 13 15 16 17 16 15
7 7 9 11 12 13 15 15 12 8 7 6 11 11 13 14 14 14 11 11 10 12 9 8 8 8 9 8 8 6 6 5 5 4 4 4 3 4 4 0 2 3 2 2 2 1 2 3 4 4 5 6 5 9 10 10 10 10 11 7 7 8 9 9 10 10 11 12 12 13 13 14 14 14 16 18 17 14 14 16 16 16 16 16 16
6 7 11 12 12 13 14 12 9 7 7 7 10 13 15 15 15 13 13 14 13 12 10 8 8 9 9 8 8 7 5 5 4 4 4 4 3 1 3 3 4 3 3 3 1 1 2 3 4 4 5 5 5 7 10 12 13 14 10 7 7 8 8 10 10 10 11 12 13 13 13 14 14 15 16 17 17 16 15 17 17 16 14 14 17
10 12 12 11 11 13 14 14 14 11 10 7 6 6 8 11 13 15 16 15 14 14 13 11 10 9 9 8 7 6 5 4 4 3 2 3 3 3 2 3 5 4 3 1 1 1 2 3 4 5 5 7 8 9 12 13 13 13 10 8 7 8 9 10 11 11 11 12 13 21 23 17 16 16 16 17 17 15 15 15 15 15 16 16 16
6 9 12 10 11 13 15 14 13 13 11 9 5 1 3 6 10 14 16 15 14 12 13 13 11 10 9 8 7 6 5 4 4 4 4 3 3 3 3 5 5 3 2 1 0 1 2 3 4 5 9 10 9 10 12 12 12 12 11 8 8 8 11 11 12 13 12 12 13 14 21 20 18 18 20 19 19 16 15 15 15 15 16 18 15
9 9 10 10 10 10 10 10 8 7 8 10 6 9 7 7 9 11 13 14 13 11 10 9 10 9 8 7 6 6 5 5 5 5 4 3 2 3 5 4 4 3 2 1 1 3 4 4 4 5 6 7 9 9 10 14 13 13 12 10 9 10 12 13 13 13 14 12 12 13 15 18 21 22 22 23 22 21 17 15 14 15 16 18 9
10 12 11 9 7 7 8 10 9 3 6 1 5 8 6 5 8 10 12 10 11 13 13 13 11 9 8 7 5 5 7 5 4 4 3 2 2 3 4 4 4 3 3 2 4 4 4 4 5 6 6 7 8 10 10 14 14 14 15 14 10 11 12 12 13 13 13 13 12 11 10 14 18 21 22 23 23 23 22 18 17 17 17 13 9
7 11 10 4 5 7 9 8 8 6 5 4 3 9 11 8 9 8 10 11 13 14 12 12 10 8 7 8 7 6 7 6 4 2 2 3 3 4 5 5 4 4 3 4 4 4 4 5 6 6 6 8 8 12 11 13 15 16 16 17 12 11 12 13 15 14 14 13 12 12 11 13 17 19 20 22 23 22 24 18 19 22 21 19 17
10 9 5 4 3 7 9 9 6 6 3 5 7 6 9 10 11 11 10 12 14 13 11 10 9 9 8 7 6 6 5 3 3 4 4 4 4 5 4 4 4 4 4 4 4 4 4 6 6 7 7 8 8 8 13 12 15 17 17 16 17 15 17 17 15 16 15 15 14 14 14 18 20 21 21 20 20 22 20 18 22 21 21 21 18
6 6 6 5 5 6 7 8 10 10 6 3 2 5 7 11 12 9 11 11 11 11 11 10 9 8 6 6 4 4 4 4 4 3 4 4 4 4 6 6 5 4 3 3 4 4 4 6 8 9 8 8 7 7 10 14 14 17 17 18 19 20 20 15 15 15 15 15 14 13 14 19 21 21 22 22 21 21 17 20 19 21 21 19 14
5 8 6 5 5 8 9 10 7 7 8 3 6 5 10 12 9 11 10 11 11 10 9 8 7 6 6 5 5 6 5 4 3 2 1 3 2 4 4 3 3 3 2 2 3 3 6 7 8 9 10 9 8 8 9 11 16 17 18 18 19 20 20 21 17 15 16 16 19 24 26 26 25 24 25 24 21 22 24 23 22 21 19 13 14
5 6 6 7 9 8 8 11 10 7 6 3 8 11 14 11 10 11 11 11 10 10 9 7 8 6 7 7 7 5 3 1 1 1 2 2 2 3 3 5 4 2 0 1 3 5 6 6 7 9 9 9 9 9 10 10 11 12 13 16 18 19 21 22 22 20 25 29 29 29 31 30 28 25 20 17 15 16 19 21 21 21 14 14 13
7 8 8 8 6 8 10 10 14 4 8 11 10 10 12 10 11 10 11 10 10 10 10 9 7 6 6 6 6 4 2 1 3 2 1 2 4 4 4 3 3 2 1 1 3 4 6 6 8 9 9 9 10 10 10 10 10 10 10 12 12 13 17 20 16 14 16 16 18 19 16 19 18 22 22 20 19 18 15 14 13 13 13 13 12
6 8 8 9 8 6 10 12 13 4 4 11 12 11 12 11 10 10 10 10 10 10 9 8 8 6 5 4 5 5 4 3 3 3 4 2 1 2 3 5 4 4 2 1 2 3 5 7 8 9 9 10 10 10 10 11 11 11 11 11 11 12 12 11 13 13 13 15 15 16 18 15 14 14 13 12 12 13 13 12 11 11 11 12 14
7 8 10 9 11 8 11 15 10 3 11 13 10 10 12 12 10 10 11 10 8 9 9 8 8 6 4 1 3 4 5 3 4 4 3 3 0 2 5 3 3 5 3 1 1 3 4 6 6 7 9 11 11 11 11 13 16 18 17 14 12 12 12 13 15 20 17 16 14 13 13 12 11 10 9 10 10 11 11 12 13 11 9 9 10
6 9 12 11 11 11 4 2 4 4 12 11 8 9 9 10 10 10 11 10 9 9 8 7 7 6 5 3 2 3 4 5 6 4 1 2 3 5 8 7 4 5 6 7 6 2 5 4 7 6 6 9 11 12 17 21 20 21 21 22 21 22 21 18 20 24 17 14 13 13 11 10 9 9 9 9 9 9 9 10 10 11 10 9 8
8 10 12 10 11 2 11 2 6 4 14 13 9 9 9 10 10 9 10 10 8 7 7 6 6 6 6 4 2 2 7 6 4 3 2 3 1 2 3 6 9 8 7 5 5 8 6 10 6 8 9 13 16 18 19 20 21 20 21 21 21 21 22 22 21 15 11 10 11 11 9 8 9 8 8 8 7 8 8 8 9 8 9 10 10
Wind_Direction
176 166 164 163 157 152 153 151 151 156 155 155 151 160 162 162 150 158 192 174 156 141 134 112 115 92 67 74 105 86 90 86 87 90 85 77 59 63 60 73 102 124 187 97 91 279 160 143 146 188 185 214 178 227 170 183 197 152 188 187 221 244 279 246 116 109 50 345 327 326 312 240 217 207 216 200 193 206 220 222 219 198 202 193 185
154 156 162 157 152 153 153 154 156 157 169 160 159 166 168 160 158 178 191 185 157 169 162 125 155 156 146 141 125 100 92 99 98 108 111 97 97 69 69 69 55 34 2 301 184 173 194 176 185 203 177 185 187 172 190 218 225 288 238 234 214 215 247 244 227 77 25 145 25 337 328 330 261 221 225 228 213 205 204 209 216 213 201 202 196
155 168 159 163 159 155 159 160 166 163 165 166 164 161 162 162 167 171 192 173 184 163 140 123 107 106 112 114 131 93 92 142 147 151 137 154 122 100 93 67 56 19 360 1 347 321 325 334 280 183 177 147 169 203 182 202 208 226 220 213 245 297 271 258 202 177 197 127 118 79 307 352 326 282 270 246 228 219 215 216 212 212 216 194 191
162 166 166 167 164 164 159 162 165 162 163 164 167 166 163 166 168 167 186 167 175 163 121 117 109 105 101 114 105 132 152 128 93 66 98 90 97 102 86 88 58 12 20 1 4 16 52 66 33 35 89 143 180 251 267 233 211 203 217 216 184 224 237 268 203 190 175 129 259 188 217 156 281 267 238 245 219 219 211 220 218 224 223 213 175
162 172 167 163 166 169 170 169 161 159 165 171 170 170 170 169 168 167 172 173 167 143 131 124 104 79 73 63 61 75 58 75 80 80 89 106 102 94 111 91 74 59 19 343 25 18 360 32 37 39 24 8 27 28 222 238 235 227 205 196 196 212 235 238 253 199 204 197 169 137 160 232 215 254 245 270 235 238 228 220 218 223 221 221 198
160 174 177 169 170 170 161 161 163 163 170 177 175 166 163 163 162 162 160 165 149 147 143 133 141 137 132 123 124 118 119 134 127 160 120 108 155 176 144 146 125 107 336 4 20 16 7 5 37 30 8 1 358 345 323 319 287 237 233 216 223 218 225 229 244 246 222 215 228 230 176 176 174 193 71 276 300 221 229 226 221 220 220 212 216
185 136 168 162 162 162 167 168 169 169 176 173 172 165 159 158 162 162 164 165 154 153 147 140 144 155 161 171 178 164 160 193 174 151 137 153 109 97 141 139 150 154 198 91 353 8 15 18 9 4 356 349 332 353 335 308 301 283 246 210 221 222 195 237 244 249 272 267 230 242 266 267 180 126 213 305 306 311 253 232 235 224 218 216 215
169 150 153 166 165 166 172 175 174 177 174 169 170 168 163 160 161 167 163 165 165 156 159 156 163 175 174 175 180 167 163 167 158 150 144 139 135 162 173 198 170 170 177 174 183 127 12 10 25 27 8 349 354 347 324 311 327 331 323 279 251 219 198 214 243 233 227 250 229 237 258 267 258 253 240 228 241 290 292 280 245 236 221 220 217
180 157 155 163 169 174 172 174 177 171 168 171 174 172 166 159 162 164 164 165 169 164 165 174 172 178 172 166 148 145 157 159 156 147 138 141 136 163 136 211 132 104 157 175 175 177 213 29 31 3 356 344 345 339 340 341 337 332 331 333 323 257 214 242 249 247 225 245 254 240 234 236 252 247 250 241 240 246 269 257 251 243 236 240 226
186 167 155 165 170 173 176 175 170 169 172 172 169 162 162 161 163 169 168 168 171 169 172 178 178 165 160 160 144 153 149 158 142 154 153 151 151 177 190 189 192 199 202 135 172 193 141 100 13 354 338 333 336 331 328 332 336 344 348 344 337 322 285 231 223 234 235 244 233 242 247 254 241 247 238 236 241 233 246 273 287 251 246 244 226
186 166 156 163 172 173 169 168 171 164 163 166 165 166 161 164 168 173 173 167 170 174 171 186 173 171 166 173 159 166 168 157 151 164 162 157 166 189 184 214 186 197 186 165 162 167 157 143 158 329 333 324 324 315 307 308 317 330 330 338 336 332 325 301 265 241 233 235 238 233 238 232 239 237 239 230 224 227 230 249 257 261 240 269 262
170 163 158 154 154 165 165 165 165 168 161 164 167 166 163 166 169 172 172 171 173 173 176 182 172 177 172 178 171 179 166 164 166 174 173 178 180 186 201 171 191 164 176 175 192 201 171 179 183 199 237 265 276 285 299 310 319 336 336 329 321 322 322 326 315 289 256 249 242 239 244 240 240 236 232 237 226 236 239 252 248 249 258 236 282
166 167 162 152 154 158 169 169 167 171 168 167 169 169 165 162 171 170 180 173 174 172 176 182 169 181 176 179 176 175 168 170 164 177 180 175 175 175 182 198 207 186 199 183 205 177 140 123 120 198 302 314 317 330 326 333 333 329 324 313 308 310 311 316 311 300 291 269 256 233 232 251 254 249 245 229 225 243 236 253 250 228 240 275 285
168 168 164 160 160 162 168 170 174 176 174 170 169 168 166 165 171 175 179 177 169 171 176 176 182 182 178 176 173 165 171 169 172 175 179 171 172 183 184 187 179 190 178 167 162 140 122 135 118 127 152 3 356 353 346 341 337 323 314 314 309 303 308 303 296 294 289 274 268 265 248 237 240 248 253 247 228 212 230 236 246 237 217 246 277
158 166 168 167 171 170 171 172 175 176 174 170 168 168 168 162 172 176 175 175 171 175 172 179 179 185 178 178 170 166 172 173 182 169 168 167 183 183 186 176 158 187 163 202 166 146 157 130 125 47 350 326 317 313 311 321 320 325 319 320 317 317 312 309 302 303 302 304 295 270 255 249 247 243 241 249 241 227 222 218 203 239 259 248 248
154 164 179 175 173 174 173 176 175 173 172 170 170 169 170 171 170 177 172 175 176 170 178 175 179 178 175 174 176 170 169 167 178 164 174 172 176 165 179 166 166 150 152 126 151 146 149 166 161 219 244 249 252 246 260 294 304 303 297 297 301 309 311 309 303 305 304 303 300 297 282 261 246 242 237 239 242 244 233 227 222 226 243 261 243
341 155 175 176 181 175 175 172 169 169 168 174 172 175 174 166 171 172 173 173 175 177 172 174 172 173 183 175 169 172 171 177 183 179 177 174 159 152 152 174 154 148 144 130 144 148 163 164 192 227 244 242 239 234 226 230 239 265 276 281 283 296 304 308 313 309 306 306 303 299 292 284 266 251 245 238 241 243 246 233 220 222 215 234 258
146 154 143 177 177 179 172 172 171 172 175 171 173 175 169 173 169 171 172 172 177 175 172 171 172 178 179 179 179 176 178 181 179 180 171 156 149 143 139 131 157 171 162 195 154 144 148 193 214 246 259 268 262 261 256 248 234 234 241 258 270 290 299 302 303 305 301 302 295 295 295 291 280 262 252 243 235 231 231 235 243 228 200 217 225
174 122 132 166 172 175 174 175 173 174 169 168 170 164 172 170 171 171 175 174 175 175 173 172 174 180 181 180 178 178 177 178 180 170 164 157 158 158 157 186 192 177 154 144 160 220 242 248 230 224 235 256 263 254 243 236 226 242 247 250 258 273 282 284 291 299 300 297 291 286 286 285 286 276 259 250 243 240 239 226 230 232 232 219 222
338 285 127 169 164 177 176 169 169 169 168 170 169 170 170 170 170 174 170 170 169 170 171 175 181 176 177 171 179 175 175 174 172 161 165 160 166 163 179 177 189 170 164 172 185 209 221 233 233 225 227 244 263 275 273 275 279 271 266 273 270 270 272 275 283 286 294 297 299 295 290 285 290 292 281 260 249 235 229 231 232 237 240 224 218
6 334 312 154 175 173 177 176 177 175 170 170 171 174 173 170 172 173 168 171 172 175 174 180 174 176 169 178 179 176 178 170 170 159 161 170 164 172 178 187 171 184 176 198 216 225 232 225 223 225 231 237 241 253 252 245 250 262 270 267 275 273 275 276 274 280 280 289 293 294 295 295 295 291 289 284 272 260 241 225 222 226 229 234 229
356 2 342 32 156 196 181 182 177 166 174 174 179 174 173 175 178 176 174 173 175 178 180 175 175 173 177 178 177 176 171 170 169 166 167 167 173 174 181 162 173 205 176 209 221 226 217 222 233 242 242 241 238 235 242 230 240 259 276 274 284 282 280 280 286 289 288 285 288 295 299 302 302 296 296 294 291 270 253 250 236 224 229 229 221
11 353 351 345 16 180 188 185 179 183 183 185 182 178 179 181 180 181 177 180 179 180 176 170 171 175 178 174 170 171 170 172 167 175 170 174 175 182 175 176 191 211 216 211 228 240 246 235 230 235 232 238 238 245 249 237 245 249 259 265 259 270 277 285 287 286 288 289 285 281 285 293 295 297 296 293 294 294 283 262 252 232 228 228 220
339 339 343 351 351 42 206 189 199 200 190 190 187 186 184 183 184 180 181 177 173 169 169 169 172 174 169 165 170 169 169 169 173 172 173 177 178 184 186 184 201 201 217 238 229 232 233 240 245 256 254 253 254 249 252 236 240 245 252 258 261 261 266 271 275 279 281 284 283 287 287 289 294 292 293 293 292 290 291 284 264 259 249 231 221
346 337 330 334 333 354 149 235 253 215 216 197 193 186 181 184 181 179 179 172 169 166 166 171 171 167 167 168 170 170 170 170 171 168 174 179 184 190 187 191 194 210 223 231 269 279 278 272 262 261 268 267 260 259 258 263 260 255 257 263 267 267 264 265 267 270 274 275 280 283 287 290 293 294 293 292 290 289 288 287 285 267 251 253 242
328 325 325 319 312 306 322 257 192 241 210 199 183 182 184 182 180 175 169 167 169 166 168 168 168 165 167 168 169 169 170 169 167 169 174 179 182 183 189 197 188 204 228 239 240 305 303 297 307 311 318 312 306 298 287 278 272 271 276 279 277 274 272 270 270 274 278 278 281 283 285 284 281 279 285 289 292 291 290 286 286 284 270 254 256
303 298 299 306 308 302 289 274 206 188 195 190 185 183 183 179 180 178 175 170 168 165 165 165 165 166 167 169 170 170 165 167 168 172 174 175 178 181 178 193 198 195 192 217 253 292 297 284 281 295 301 297 297 293 292 285 284 283 283 286 287 287 286 282 276 272 270 270 270 270 272 275 278 279 280 284 292 295 294 292 289 287 287 277 260
291 293 304 303 301 291 275 270 259 172 204 194 195 190 185 183 183 181 176 166 165 162 163 164 162 164 168 171 169 162 160 165 169 170 173 176 177 180 186 198 177 166 187 211 251 263 267 280 287 307 308 316 313 314 307 300 289 285 282 277 278 278 279 278 276 271 270 269 267 264 263 267 269 274 280 284 287 291 301 301 303 312 309 303 285
310 306 301 303 301 296 290 281 255 149 184 211 229 220 225 212 190 175 165 165 162 161 163 163 162 165 170 164 158 157 157 161 165 166 169 175 173 181 185 176 165 176 185 213 222 216 242 273 308 332 335 338 335 319 312 307 307 302 297 293 290 286 283 282 280 278 276 277 279 276 271 265 261 260 262 265 269 274 284 288 290 292 294 299 302
331 331 329 324 321 334 344 327 323 338 190 181 173 154 121 136 241 206 175 168 160 164 163 161 163 163 157 155 155 156 161 158 157 164 167 170 178 190 186 183 194 200 221 238 238 246 244 183 125 307 312 318 307 300 303 307 309 308 309 307 304 301 299 296 292 289 282 277 274 276 277 282 287 284 275 267 265 265 264 267 279 284 282 284 285
320 317 317 317 313 313 328 346 327 22 323 299 229 184 231 145 123 36 330 202 164 162 159 156 156 153 153 153 154 160 157 159 161 155 168 173 192 189 187 196 206 217 223 223 221 220 178 197 233 253 275 279 276 274 282 286 297 306 307 299 297 295 295 292 291 288 287 284 279 274 272 272 272 275 278 275 268 264 265 264 263 266 266 260 270
314 313 312 311 310 309 301 297 291 219 183 214 240 235 166 142 123 118 109 318 265 161 148 149 148 149 150 153 152 150 149 153 152 167 177 190 188 192 205 202 196 212 240 233 212 184 203 249 254 260 265 263 256 259 268 272 276 279 280 287 290 291 288 287 286 285 285 286 285 283 277 274 267 265 264 269 276 281 282 278 271 264 264 265 251
302 311 322 323 320 316 313 287 292 276 198 209 204 191 185 156 148 146 136 139 160 139 134 134 146 147 146 144 143 146 149 157 171 179 186 188 189 186 174 169 213 228 241 256 171 126 234 265 283 285 277 270 267 262 263 264 263 262 266 269 273 271 274 274 274 275 277 279 281 281 281 274 272 266 265 264 263 267 275 284 286 279 266 257 261
325 318 315 312 311 308 304 301 268 254 255 215 194 186 175 161 148 151 148 147 132 143 128 141 143 146 142 139 140 144 158 169 176 178 181 185 179 183 189 190 206 249 180 140 176 298 307 293 275 271 274 274 274 274 271 269 265 264 266 270 276 278 279 277 276 275 274 273 271 273 275 273 271 270 264 262 259 261 265 269 274 278 280 271 255
321 320 318 317 313 305 299 296 289 264 249 220 209 198 171 162 159 161 162 156 154 143 140 155 153 146 140 137 140 143 154 161 165 172 175 182 173 170 170 199 205 189 132 158 173 351 325 314 304 298 295 290 281 283 283 281 280 280 281 282 275 275 276 278 277 275 273 271 271 268 267 267 267 267 266 266 267 266 266 266 268 274 279 283 288
321 322 316 313 309 302 296 288 278 259 253 217 200 196 176 174 169 160 156 148 150 142 149 151 152 151 141 137 135 140 146 159 170 170 171 175 175 185 207 212 89 98 82 76 26 47 331 317 304 306 301 293 289 290 295 300 297 289 279 271 268 270 275 276 277 276 274 273 272 269 269 266 265 262 261 259 260 263 265 264 263 262 268 276 277
312 320 318 315 310 308 305 295 274 243 245 225 208 198 185 174 167 160 153 148 147 143 152 153 148 146 134 131 129 138 152 168 171 163 171 187 194 96 103 122 103 106 98 79 59 334 310 306 302 301 300 293 293 295 299 298 295 292 289 282 283 284 282 282 278 279 276 274 271 268 265 266 264 263 259 254 254 252 259 259 259 260 260 264 269
335 329 322 314 312 309 298 291 280 257 235 231 211 209 212 182 166 157 152 151 149 149 158 155 148 136 132 130 135 139 155 176 157 157 139 112 129 128 146 140 115 113 87 71 306 330 303 295 299 300 294 299 295 292 293 294 293 291 287 288 287 287 285 284 284 278 278 276 272 269 271 268 265 262 259 253 250 245 252 253 255 257 258 256 262
321 317 308 309 306 301 296 287 266 253 241 216 172 154 220 192 171 156 152 149 148 149 158 151 142 132 131 132 137 141 131 122 116 132 133 123 124 136 130 93 109 116 139 180 180 269 266 271 268 276 285 288 287 285 281 280 281 285 288 289 290 291 291 288 286 284 279 278 277 272 268 264 262 262 258 253 246 241 249 250 251 253 254 253 254
316 309 295 290 295 300 305 303 300 284 244 205 177 161 172 185 180 149 142 146 147 153 142 122 118 122 126 132 130 125 123 109 102 94 90 115 133 88 100 125 138 144 162 191 214 235 249 261 266 271 275 274 281 282 280 277 274 275 279 287 290 292 289 288 285 284 286 278 276 275 268 260 257 256 254 251 247 241 245 248 248 248 249 253 253
307 300 294 288 295 293 295 308 295 335 19 19 112 115 129 166 154 128 120 125 126 119 112 112 111 116 122 124 115 108 105 109 122 133 132 140 163 138 142 138 159 170 167 219 240 240 251 264 263 263 267 274 276 284 285 282 280 279 281 285 284 281 283 283 285 283 282 282 279 273 270 258 251 249 247 245 242 239 238 241 242 246 245 259 262
289 288 284 291 303 317 322 303 298 319 30 19 30 107 114 100 104 96 116 120 109 106 108 113 125 126 112 105 116 121 123 133 141 139 175 211 222 150 164 158 177 176 198 230 243 259 262 269 274 275 274 277 281 285 292 290 288 285 282 280 280 278 280 286 285 282 280 275 271 272 270 268 264 256 248 243 239 236 234 236 241 244 251 250 249
306 299 296 300 327 334 335 317 335 324 18 53 33 79 111 122 114 131 129 117 111 112 116 116 115 110 120 128 124 121 127 134 173 175 174 206 225 153 174 167 175 194 208 233 263 272 281 288 289 283 281 283 287 290 288 290 289 287 284 283 280 282 282 282 280 280 277 275 274 271 269 268 266 266 262 252 244 239 236 238 240 243 245 245 247
292 305 305 313 334 329 321 329 340 324 340 49 80 88 110 111 127 129 118 115 114 113 111 109 114 122 122 119 123 135 148 153 160 162 176 203 239 162 172 180 183 179 201 257 285 302 309 297 294 297 295 290 288 287 289 289 291 289 287 284 283 280 278 274 274 276 276 273 272 268 268 266 265 262 261 257 249 242 240 240 239 239 240 240 242
291 293 305 316 327 318 316 298 293 295 301 336 122 117 124 125 138 130 122 112 110 111 111 114 105 100 114 121 110 107 115 131 155 159 231 263 267 164 163 198 157 193 208 265 297 311 301 298 298 300 300 299 295 293 292 291 288 287 283 281 280 278 277 276 275 275 272 273 271 271 270 269 267 263 259 257 255 247 241 241 239 236 235 237 236
294 302 306 318 312 308 305 291 271 221 242 161 122 134 130 140 133 120 114 111 107 105 102 94 102 109 109 107 109 117 123 148 242 193 196 208 175 158 156 199 189 186 136 55 322 309 300 298 298 298 301 301 301 299 297 295 294 290 288 285 283 282 280 278 274 273 272 271 271 270 269 267 266 261 256 250 245 241 237 237 238 237 236 233 230
304 303 309 305 311 307 299 278 275 253 161 133 134 143 135 139 127 123 115 112 107 101 100 107 116 118 108 118 118 133 151 233 208 174 85 90 118 155 167 170 149 127 93 335 294 301 299 294 302 308 304 305 302 301 299 298 298 298 298 295 292 286 281 279 276 273 272 271 268 267 265 262 257 253 247 244 242 240 238 236 234 234 232 229 228
297 299 303 298 291 275 264 258 257 232 177 128 140 144 137 134 128 122 113 107 108 107 107 102 100 106 101 122 146 163 149 201 191 120 95 75 177 169 138 157 158 167 153 264 279 287 293 295 316 317 310 307 305 303 303 307 310 307 300 295 289 285 283 281 281 280 277 275 276 275 271 265 256 250 246 237 235 233 232 230 229 226 221 219 220
307 312 304 290 285 274 230 238 241 182 149 133 149 142 137 132 121 112 106 103 107 114 113 115 117 111 109 119 160 158 191 166 111 108 151 170 150 135 148 189 221 166 161 187 220 254 275 276 297 311 313 309 307 308 310 308 303 301 299 298 295 291 289 288 282 281 282 282 277 273 266 260 246 240 233 230 227 223 222 222 222 222 217 208 206
316 295 283 288 287 279 173 85 312 138 132 136 140 134 125 115 111 110 113 111 111 117 127 120 123 123 160 178 228 157 159 121 119 119 97 28 351 166 165 157 200 197 190 198 189 201 256 318 333 297 289 302 308 304 302 303 303 302 300 296 294 292 290 286 283 283 278 278 275 270 261 251 244 231 231 228 225 216 214 214 215 215 218 225 223
303 295 293 294 286 299 88 119 274 178 137 139 135 128 118 111 113 118 119 119 113 117 94 108 129 143 168 183 200 129 119 118 125 148 136 109 112 2 15 161 167 187 192 209 221 238 349 5 330 315 305 297 296 300 305 307 307 306 304 303 302 301 299 297 294 291 282 276 272 264 261 248 240 231 224 224 213 212 210 210 214 210 214 219 224